Torna al catalogo

STARLINK-5214

AttivoComunicazioniVLEO
NORAD 54762·PAYLOAD·🇺🇸 United States

Lanciato Dec 17, 2022 da Cape Canaveral Space Force Station

Loading…

Prossimi Passaggi (prossime 24 ore)

TLE

AggiornatoSource: CelesTrak SupGP

Epoca: Sep 14, 2026, 21:07 UTC

1 54762C 22175E   26257.88034722 -.00058653  00000+0 -18871-2 0  2579
2 54762  53.1556 260.9828 0001335  88.3813  98.1455 15.31714680    18

Traccia STARLINK-5214 in tempo reale con AllMySat

Download on the App Store